Regional Weather Roundup
Issued by NWS Wakefield, VA

Home | Current Version | Previous Version | Graphics & Text | Print | Product List | Glossary On
Versions: 1 2 3 4 5 6 7 8 9 10 11 12 13 14 15 16 17 18 19 20 21 22 23 24 25 26 27 28 29 30 31 32 33 34 35 36 37 38 39 40 41 42 43 44 45 46 47 48 49 50
000
ASUS41 KAKQ 290210
RWRAKQ

REGIONAL WEATHER ROUNDUP
NATIONAL WEATHER SERVICE WAKEFIELD VA
900 PM EST SUN DEC 28 2014

Note: "fair" indicates few or no clouds below 12,000 feet with no
significant weather and/or obstructions to visibility. * = Denotes
station may not report precipitation (e.g., rain,snow,etc.),
thunder or fog.

VAZ042-051-052>054-056-290300-
NORTHERN VIRGINIA

CITY           SKY/WX    TMP DP  RH WIND       PRES   REMARKS
WASH NATIONAL  CLOUDY    54  45  71 N6        30.05S
DULLES         CLOUDY    48  40  73 N9        30.06R
FORT BELVOIR   CLOUDY    50  48  92 NW3       30.07R
QUANTICO       CLOUDY    46  43  89 CALM      30.08R
FREDERICKSBRG* CLOUDY    50  50 100 CALM      30.04R
STAFFORD*      CLOUDY    49  32  51 N6        30.10R
WARRENTON      CLOUDY    49  49 100 N5        30.05R
CULPEPER*      DRIZZLE   48  48 100 CALM      30.06R
MANASSAS*      CLOUDY    48  48 100 N5        30.07R
LEESBURG*      CLOUDY    50  43  76 N7        30.08R
WINCHESTER     LGT RAIN  50  34  53 N3        30.08R
FRONT ROYAL*   CLOUDY    46  41  81 NE5       30.05R
LURAY*         CLOUDY    50  46  87 N9        30.04S
$$

VAZ048-049-060>072-079>083-290300-
CENTRAL AND SOUTH CENTRAL VIRGINIA

CITY           SKY/WX    TMP DP  RH WIND       PRES   REMARKS
RICHMOND       CLOUDY    54  51  90 CALM      30.03R
CHESTERFIELD*  CLOUDY    52  43  71 CALM      30.04R
PETERSBURG*    CLOUDY    52  51  97 CALM      30.04R FOG
HANOVER        CLOUDY    50  50 100 CALM      30.05R
TAPPAHANNOCK*  CLOUDY    51  45  79 CALM      30.05R
QUINTON*       CLOUDY    51  51 100 CALM      30.03S
CHARLOTTSVILLE CLOUDY    48  45  89 CALM      30.04R
GORDONSVILLE*  CLOUDY    46  45  99 CALM      30.04S
ORANGE*        CLOUDY    46  45  93 CALM      30.06R
LOUISA*        MOCLDY    50  48  93 CALM      30.02S
BUMPASS*       CLOUDY    48  48  99 CALM      30.03S
FARMVILLE*     CLOUDY    55  48  79 SW5       30.03R
CREWE*         MOCLDY    55  49  82 CALM      30.03R
FORT PICKETT*  CLOUDY    52  51  95 SW3       30.03S
CHASE CITY*    MOCLDY    53  53 100 CALM      30.04S
CLARKSVILLE*   MOCLDY    52  52 100 CALM      30.05R
SOUTH HILL*    MOCLDY    55  54  97 W3        30.11R
LAWRENCEVILLE* CLOUDY    55  54  98 CALM      30.04R
EMPORIA*       CLOUDY    54  54 100 CALM      30.06R FOG
$$

VAZ088>098-290300-
SOUTHEAST VIRGINIA

CITY           SKY/WX    TMP DP  RH WIND       PRES   REMARKS
NORFOLK        CLOUDY    59  56  89 S7        30.02S
VIRGINIA BEACH CLOUDY    60  57  89 S3        30.02F
NORFOLK NAVAL  CLOUDY    62  56  80 SW5       30.04R
WEST POINT*    CLOUDY    55  52  92 CALM      30.05R
SALUDA*        CLOUDY    49  46  88 CALM      30.03R
NEWPORT NEWS   CLOUDY    60  54  80 CALM      30.03S
LANGLEY AFB    CLOUDY    55  52  89 NE3       30.03S
FORT EUSTIS    CLOUDY    55  55 100 CALM      30.01R
WILLIAMSBURG*  CLOUDY    57  54  88 CALM      30.04S
HR EXEC AP*    CLOUDY    57  55  94 SW5       30.05S
FRANKLIN*      CLOUDY    57  57 100 SW3       30.04R
WAKEFIELD      CLOUDY    58  55  90 SW3       30.03S
$$

VAZ020-022-025-037-045-290300-
WEST CENTRAL AND SOUTHWEST VIRGINIA

CITY           SKY/WX    TMP DP  RH WIND       PRES   REMARKS
STAUNTON*      CLOUDY    48  46  92 CALM      30.06R
WAYNESBORO*    CLOUDY    50  45  83 SW6       30.04R
HOT SPRINGS VA FOG       41  41 100 W17       30.02R VSB<1/4
LYNCHBURG      CLOUDY    52  47  83 W3        30.06R
DANVILLE       CLOUDY    51  49  92 SW3       30.06R
SOUTH BOSTON*  MOCLDY    51  49  93 CALM      30.05S
MARTINSVILLE   MOCLDY    45  45 100 CALM      30.08S
ROANOKE        CLOUDY    53  44  71 CALM      30.08R
BLACKSBURG     CLOUDY    46  45  97 W5        30.10R
DUBLIN*        CLOUDY    48  48 100 SW3       30.09S
MARION*        LGT RAIN  47  46  96 W6        30.11S VSB 1/4
HILLSVILLE*    MOCLDY    46  45  97 W6        30.08R
RICHLANDS*     DRZL/FOG  45  43  95 W3        30.09R VSB 1/2
WISE*          DRIZZLE   43  43 100 N7        30.10F
ABINGDON*      DRZL/FOG  48  48 100 CALM      30.10S VSB 1/2
$$

MDZ021>025-VAZ099-100-290300-
SOUTHERN MARYLAND AND THE DELMARVA PENINSULA

CITY           SKY/WX    TMP DP  RH WIND       PRES   REMARKS
PATUXENT RIVER CLOUDY    49  46  90 CALM      30.04R
BAY BRIDGE APT   N/A     45  45 100 CALM      30.05S
LEONARDTOWN    CLOUDY    48  46  93 MISG        N/A
DOVER          MOCLDY    48  48 100 NW6       30.02R
GEORGETOWN     CLOUDY    50  47  89 CALM      30.04R
EASTON         CLOUDY    48  48 100 CALM      30.08R
CAMBRIDGE      CLOUDY    52  48  87 CALM      30.04R
SALISBURY      CLOUDY    52  47  83 CALM      30.03R
OCEAN CITY     CLOUDY    50  46  86 N3        30.02R
WALLOPS ISLAND CLOUDY    50  45  83 E3        30.03R
ACCOMACK*      CLOUDY    52  45  76 CALM      30.03R
$$

NCZ012>017-030>032-290300-
NORTH CENTRAL AND EASTERN NORTH CAROLINA

CITY           SKY/WX    TMP DP  RH WIND       PRES   REMARKS
ROANOKE RAPIDS CLOUDY    54  54 100 CALM      30.04R FOG
RALEIGH        MOCLDY    55  53  93 CALM      30.06S FOG
ELIZABETH CITY CLOUDY    63  58  83 S3        30.02F
AHOSKIE*       CLOUDY    56  55  97 CALM      30.04S FOG
EDENTON*       CLOUDY    58  57  96 CALM      30.03F
CURRITUCK*     CLOUDY    59  58  94 SW3       30.03F
KILL DEVIL HLS CLOUDY    58  57  98 CALM      30.04S
MANTEO         CLOUDY    57  57 100 W3        30.06S
CAPE HATTERAS  CLOUDY    57  56  96 NW3       30.06S
TARBORO*       CLOUDY    59  57  94 CALM      30.05S
GOLDSBORO      CLOUDY    59  59 100 S3        30.03S FOG
WASHINGTON     CLOUDY    58  58  97 CALM      30.06S
GREENVILLE     CLOUDY    59  59 100 S5        30.06F FOG
NEW BERN       CLOUDY    63  57  81 CALM      30.07S
WILMINGTON     CLOUDY    64  62  93 SW3       30.06S
$$

VAZ048-290300-
ELSEWHERE

CITY           SKY/WX    TMP DP  RH WIND       PRES   REMARKS
HARRISBURG PA  CLOUDY    43  31  62 NW10      30.07R
BALTIMORE      LGT RAIN  50  44  80 VRB5      30.04R
ANNAPOLIS      CLOUDY    49  46  90 NW5       30.04R
ANDREWS AFB    CLOUDY    50  47  92 NW6       30.05R
PHILADELPHIA   LGT RAIN  50  42  74 W6        30.03R
HENDERSON NC   MOCLDY    55  53  94 W3        30.05S FOG
GREENSBORO     FOG       50  50 100 CALM      30.05R VSB 1
ROCKY MOUNT    CLOUDY    58  57  97 S3        30.04F
$$

VAZ100-290300-
MARINE

STATION/POSITION TIME  TEMP    WIND        PRES    WAVE   SWELL
                       AIR SEA DIR/SP/G            HT/PER HT/PER
                 (UTC) (F)     (DEG/KT/KT) (MB)    (FT/S) (FT/S)
CAPE MAY NJ      0200   46 46  260/  2/  3 1015.9F
LEWES DE         0200   50 44  220/  3/  4 1016.2R
15NM E FENWICK I 0200   49 45              1016.0F   3/13
OCEAN-CITY-INLET 0200           80/  1/  1   N/A
WACHAPREAGUE VA  0200   51 50  220/  2/  3 1016.5R
THOMAS POINT MD  0200   50 43  300/  6/  7 1018.8R
GOOSES REEF MD   0200   45     VRB  2/  2  1016.4R   1
COVE POINT MD    0200   49     360/  1/  2 1017.1R
SOLOMONS ISLAND  0200      44                N/A
BISHOPS HEAD MD  0200   49 46  340/  2/  3 1016.8R
PINEY POINT MD   0200           CALM  /  1   N/A
POTOMAC MD       0200   47 44  300/  2/  4 1016.4R   0
CAMBRIDGE MD     0200   47 43  300/  1/  2 1017.0R
LEWISETTA VA     0200   49 45     CALM     1017.0R
RAPPAHANNOCK LGT 0200          170/  5/  5 1017.4R
STINGRAY PT      0200   49 45  280/  2/  4 1017.6R   0
YORK RVR RNG VA  0200   51     130/  4/  5 1016.2R
YORKTOWN VA      0200   56 46  270/  1/  2 1016.5F
JAMESTOWN VA     0200   51 47   CALM  /  2   N/A     0
DOMINION TERM VA 0200   56     240/  2/  3 1016.8R
KIPTOPEKE VA     0200      51   90/  4/  5   N/A
CHES BAY BRIDGE  0200          180/  7/  8   N/A
CAPE HENRY VA    0200   59     190/  4/  6 1015.6R
CHESAPEAKE LGHT  0100   58     280/  9/ 10 1017.5R
WILLOUBY STN VA  0200   59     200/  4/  4 1017.1R
S CRANEY ISL VA  0200          210/  4/  6 1016.4F
CAPE HENRY BUOY  0100      48                N/A     2/13   2/13
1ST LANDING BUOY 0200   53 47  110/  2/  2 1016.3F   1/ 6
CAPE CHARLES BUO 0200      48                N/A     2/11   2/11
64NM E OF VA BCH 0200   55 53  250/  4/  4 1016.7F   3/13   3/13
DUCK PIER NC     0200   58 50  270/  7/  9 1016.5S
44100 DUCK FRF   0200      50                N/A     2/14   2/14
44056 DUCK FRF   0100      49                N/A     2/13   2/13
OREGON INLET NC  0200   58 53  270/  4/  5 1017.8R
HATTERAS NC      0200          300/  2/  2   N/A
DIAMOND SHLS NC  0200   68                 1017.7S   3/13
CAPE LOOKOUT NC  0100   64     230/  9/ 14 1017.8R
$$



USA.gov is the U.S. government's official web portal to all federal, state and local government web resources and services.